Tracking 19245 objects as of 17-Aug-2018
HD Live streaming from Space Station
objects crossing your sky now

FENGYUN 1C DEB

Track FENGYUN 1C DEB now!
10-day predictions


NORAD ID: 37449
Int'l Code: 1999-025EHT
Perigee: 519.0 km
Apogee: 728.6 km
Inclination: 98.9 °
Period: 97.0 minutes
Semi major axis: 6994 km
RCS: 0.0081 m2 (small)
Launch date: May 10, 1999
Source: People's Republic of China (PRC)
Launch site: Taiyaun Space Center, China (TSC)

Note: This is SATELLITE DEBRIS
aabbcc
Your satellite tracking list
Your tracking list is empty




NASA's NSSDC Master Catalog

Two Line Element Set (TLE):
1 37449U 99025EHT 18229.34523302  .00001114  00000-0  11740-3 0  9999
2 37449  98.8725 264.4353 0149819 182.5604 177.4857 14.84030113479197
Source of the keplerian elements: AFSPC